When you browse on this site, cookies collect data to enhance your experience and personalize the content and advertising you see.
Visit our Privacy Policy to learn more. By continuing to use the site, you agree to this use of cookies and data.
  • In Hungary
  • List of Countries
  • For 7 days
  • Water Temperature
  • Weather Map
  • News
  • Weather Widgets
  • user-avatar
    Login

    Hourly Weather Ekaterinovka

    Today, 23 October, Wednesday

    Time Temperature Precipitation Wind Pressure Humidity
    00:00 +14°C° 0 mm 1 mps 765 mmHg 62%
    01:00 +14°C° 0 mm 1 mps 765 mmHg 63%
    02:00 +13°C° 0 mm 1 mps 765 mmHg 63%
    03:00 +13°C° 0 mm 1 mps 765 mmHg 67%
    04:00 +13°C° 0 mm 1 mps 765 mmHg 68%
    05:00 +12°C° 0 mm 1 mps 765 mmHg 70%
    06:00 +12°C° 0 mm 1 mps 765 mmHg 72%
    07:00 +13°C° 0 mm 1 mps 765 mmHg 67%
    08:00 +14°C° 0 mm 1 mps 766 mmHg 63%
    09:00 +16°C° 0 mm 2 mps 766 mmHg 58%
    10:00 +17°C° 0 mm 2 mps 766 mmHg 53%
    11:00 +18°C° 0 mm 2 mps 765 mmHg 48%
    12:00 +20°C° 0 mm 2 mps 765 mmHg 43%
    13:00 +20°C° 0 mm 2 mps 765 mmHg 41%
    14:00 +21°C° 0 mm 1 mps 765 mmHg 40%
    15:00 +22°C° 0 mm 1 mps 764 mmHg 39%
    16:00 +20°C° 0 mm 1 mps 764 mmHg 43%
    17:00 +18°C° 0 mm 2 mps 764 mmHg 48%
    18:00 +16°C° 0 mm 2 mps 764 mmHg 53%
    19:00 +16°C° 0 mm 2 mps 765 mmHg 54%
    20:00 +15°C° 0 mm 2 mps 765 mmHg 55%
    21:00 +15°C° 0 mm 2 mps 765 mmHg 56%
    22:00 +14°C° 0 mm 2 mps 764 mmHg 56%
    23:00 +14°C° 0 mm 2 mps 764 mmHg 56%

    Tomorrow, 24 October, Thursday

    Time Temperature Precipitation Wind Pressure Humidity
    00:00 +14°C° 0 mm 2 mps 764 mmHg 56%
    01:00 +13°C° 0 mm 1 mps 764 mmHg 56%
    02:00 +13°C° 0 mm 1 mps 764 mmHg 57%
    03:00 +13°C° 0 mm 1 mps 764 mmHg 58%
    04:00 +13°C° 0 mm 1 mps 764 mmHg 59%
    05:00 +12°C° 0 mm 1 mps 764 mmHg 60%
    06:00 +12°C° 0 mm 1 mps 764 mmHg 61%
    07:00 +13°C° 0 mm 1 mps 764 mmHg 58%
    08:00 +14°C° 0 mm 2 mps 764 mmHg 55%
    09:00 +16°C° 0 mm 2 mps 764 mmHg 52%
    10:00 +17°C° 0 mm 2 mps 764 mmHg 46%
    11:00 +19°C° 0 mm 2 mps 764 mmHg 41%
    12:00 +20°C° 0 mm 2 mps 764 mmHg 35%
    13:00 +21°C° 0 mm 2 mps 764 mmHg 34%
    14:00 +21°C° 0 mm 2 mps 763 mmHg 32%
    15:00 +23°C° 0 mm 2 mps 763 mmHg 31%
    16:00 +20°C° 0 mm 2 mps 763 mmHg 35%
    17:00 +19°C° 0 mm 3 mps 763 mmHg 39%
    18:00 +17°C° 0 mm 3 mps 763 mmHg 43%
    19:00 +17°C° 0 mm 3 mps 763 mmHg 45%
    20:00 +16°C° 0 mm 3 mps 763 mmHg 47%
    21:00 +16°C° 0 mm 3 mps 763 mmHg 49%
    22:00 +14°C° 0 mm 3 mps 763 mmHg 50%
    23:00 +14°C° 0 mm 3 mps 763 mmHg 50%

    Day after tomorrow, 25 October, Friday

    Time Temperature Precipitation Wind Pressure Humidity
    00:00 +13°C° 0 mm 3 mps 763 mmHg 51%
    01:00 +13°C° 0 mm 3 mps 763 mmHg 51%
    02:00 +13°C° 0 mm 3 mps 763 mmHg 51%
    03:00 +13°C° 0 mm 2 mps 762 mmHg 52%
    04:00 +12°C° 0 mm 3 mps 762 mmHg 53%
    05:00 +12°C° 0 mm 3 mps 762 mmHg 54%
    06:00 +12°C° 0 mm 3 mps 762 mmHg 55%
    07:00 +13°C° 0 mm 4 mps 763 mmHg 56%
    08:00 +14°C° 0 mm 4 mps 763 mmHg 58%
    09:00 +14°C° 0 mm 5 mps 763 mmHg 59%
    10:00 +16°C° 0 mm 5 mps 763 mmHg 55%
    11:00 +17°C° 0 mm 5 mps 763 mmHg 51%
    12:00 +20°C° 0 mm 6 mps 763 mmHg 46%
    13:00 +20°C° 0 mm 6 mps 762 mmHg 44%
    14:00 +20°C° 0 mm 6 mps 762 mmHg 41%
    15:00 +21°C° 0 mm 6 mps 762 mmHg 39%
    16:00 +19°C° 0 mm 5 mps 762 mmHg 43%
    17:00 +18°C° 0 mm 4 mps 762 mmHg 47%
    18:00 +15°C° 0 mm 4 mps 762 mmHg 52%
    19:00 +15°C° 0 mm 4 mps 762 mmHg 52%
    20:00 +14°C° 0 mm 4 mps 762 mmHg 53%
    21:00 +14°C° 0 mm 4 mps 762 mmHg 54%
    22:00 +14°C° 0 mm 4 mps 763 mmHg 53%
    23:00 +13°C° 0 mm 4 mps 763 mmHg 53%

    26 October, Saturday

    Time Temperature Precipitation Wind Pressure Humidity
    00:00 +13°C° 0 mm 4 mps 763 mmHg 52%
    01:00 +13°C° 0 mm 4 mps 763 mmHg 55%
    02:00 +12°C° 0 mm 4 mps 763 mmHg 58%
    03:00 +12°C° 0 mm 3 mps 763 mmHg 61%
    04:00 +11°C° 0 mm 4 mps 763 mmHg 62%
    05:00 +11°C° 0 mm 4 mps 763 mmHg 64%
    06:00 +10°C° 0 mm 4 mps 763 mmHg 66%
    07:00 +11°C° 0 mm 4 mps 764 mmHg 63%
    08:00 +12°C° 0 mm 4 mps 764 mmHg 61%
    09:00 +13°C° 0 mm 5 mps 764 mmHg 59%
    10:00 +15°C° 0 mm 5 mps 764 mmHg 53%
    11:00 +16°C° 0 mm 5 mps 764 mmHg 48%
    12:00 +19°C° 0 mm 5 mps 764 mmHg 43%
    13:00 +19°C° 0 mm 5 mps 764 mmHg 41%
    14:00 +20°C° 0 mm 4 mps 764 mmHg 39%
    15:00 +20°C° 0 mm 4 mps 763 mmHg 37%
    16:00 +18°C° 0 mm 4 mps 764 mmHg 41%
    17:00 +17°C° 0 mm 3 mps 764 mmHg 44%
    18:00 +14°C° 0 mm 3 mps 764 mmHg 48%
    19:00 +14°C° 0 mm 3 mps 764 mmHg 50%
    20:00 +13°C° 0 mm 3 mps 764 mmHg 52%
    21:00 +13°C° 0 mm 3 mps 764 mmHg 54%
    22:00 +13°C° 0 mm 3 mps 764 mmHg 57%
    23:00 +13°C° 0 mm 2 mps 764 mmHg 60%

    27 October, Sunday

    Time Temperature Precipitation Wind Pressure Humidity
    00:00 +13°C° 0 mm 2 mps 764 mmHg 64%
    01:00 +13°C° 0 mm 2 mps 764 mmHg 66%
    02:00 +12°C° 0 mm 2 mps 764 mmHg 69%
    03:00 +12°C° 0 mm 2 mps 764 mmHg 71%
    04:00 +12°C° 0 mm 2 mps 764 mmHg 73%
    05:00 +12°C° 0 mm 2 mps 764 mmHg 74%
    06:00 +12°C° 0 mm 2 mps 764 mmHg 76%
    07:00 +13°C° 0 mm 2 mps 764 mmHg 72%
    08:00 +14°C° 0 mm 2 mps 764 mmHg 69%
    09:00 +15°C° 0 mm 2 mps 764 mmHg 65%
    10:00 +17°C° 0 mm 2 mps 764 mmHg 61%
    11:00 +19°C° 0 mm 2 mps 764 mmHg 56%
    12:00 +20°C° 0 mm 3 mps 764 mmHg 51%
    13:00 +21°C° 0 mm 3 mps 763 mmHg 48%
    14:00 +21°C° 0 mm 2 mps 763 mmHg 45%
    15:00 +21°C° 0 mm 2 mps 762 mmHg 41%
    16:00 +20°C° 0 mm 2 mps 762 mmHg 45%
    17:00 +18°C° 0 mm 2 mps 762 mmHg 48%
    18:00 +16°C° 0 mm 2 mps 762 mmHg 52%
    19:00 +16°C° 0 mm 2 mps 762 mmHg 54%
    20:00 +15°C° 0 mm 2 mps 762 mmHg 56%
    21:00 +15°C° 0 mm 2 mps 762 mmHg 58%
    22:00 +14°C° 0 mm 1 mps 762 mmHg 61%
    23:00 +14°C° 0 mm 1 mps 761 mmHg 64%

    28 October, Monday

    Time Temperature Precipitation Wind Pressure Humidity
    00:00 +14°C° 0 mm 1 mps 761 mmHg 67%
    01:00 +14°C° 0 mm 1 mps 761 mmHg 70%
    02:00 +13°C° 0 mm 1 mps 761 mmHg 73%
    03:00 +13°C° 0 mm 1 mps 761 mmHg 75%
    04:00 +13°C° 0 mm 1 mps 761 mmHg 78%
    05:00 +12°C° 0 mm 1 mps 761 mmHg 80%
    06:00 +12°C° 0 mm 1 mps 760 mmHg 82%
    07:00 +13°C° 0 mm 1 mps 760 mmHg 78%
    08:00 +14°C° 0 mm 1 mps 760 mmHg 74%
    09:00 +15°C° 0 mm 1 mps 760 mmHg 70%
    10:00 +18°C° 0 mm 1 mps 760 mmHg 64%
    11:00 +19°C° 0 mm 1 mps 760 mmHg 59%
    12:00 +21°C° 0 mm 1 mps 760 mmHg 54%
    13:00 +21°C° 0 mm 1 mps 759 mmHg 51%
    14:00 +21°C° 0 mm 1 mps 759 mmHg 49%
    15:00 +22°C° 0 mm 1 mps 759 mmHg 47%
    16:00 +20°C° 0 mm 1 mps 758 mmHg 52%
    17:00 +19°C° 0 mm 1 mps 758 mmHg 58%
    18:00 +18°C° 0 mm 1 mps 758 mmHg 63%
    19:00 +16°C° 0 mm 1 mps 758 mmHg 65%
    20:00 +16°C° 0 mm 1 mps 758 mmHg 68%
    21:00 +15°C° 0 mm 1 mps 758 mmHg 70%
    22:00 +15°C° 0 mm 1 mps 758 mmHg 71%
    23:00 +15°C° 0 mm 1 mps 758 mmHg 72%

    29 October, Tuesday

    Time Temperature Precipitation Wind Pressure Humidity
    00:00 +14°C° 0 mm 1 mps 758 mmHg 73%
    01:00 +14°C° 0 mm 1 mps 758 mmHg 73%
    02:00 +14°C° 0 mm 1 mps 757 mmHg 74%
    03:00 +13°C° 0 mm 0 mps 757 mmHg 75%
    04:00 +12°C° 0 mm 0 mps 757 mmHg 76%
    05:00 +12°C° 0 mm 0 mps 757 mmHg 77%
    06:00 +12°C° 0 mm 0 mps 757 mmHg 78%
    07:00 +13°C° 0 mm 0 mps 757 mmHg 74%
    08:00 +14°C° 0 mm 0 mps 757 mmHg 69%
    09:00 +15°C° 0 mm 0 mps 757 mmHg 65%
    10:00 +16°C° 0 mm 0 mps 757 mmHg 60%
    11:00 +19°C° 0 mm 1 mps 757 mmHg 55%
    12:00 +21°C° 0 mm 1 mps 757 mmHg 50%
    13:00 +21°C° 0 mm 1 mps 757 mmHg 47%
    14:00 +21°C° 0 mm 1 mps 757 mmHg 45%
    15:00 +21°C° 0 mm 2 mps 757 mmHg 43%
    16:00 +19°C° 0 mm 2 mps 757 mmHg 46%
    17:00 +18°C° 0 mm 2 mps 756 mmHg 50%
    18:00 +18°C° 0 mm 1 mps 756 mmHg 53%
    19:00 +16°C° 0 mm 2 mps 756 mmHg 55%
    20:00 +16°C° 0 mm 2 mps 757 mmHg 56%
    21:00 +15°C° 0 mm 2 mps 757 mmHg 57%
    22:00 +15°C° 0 mm 2 mps 757 mmHg 59%
    23:00 +14°C° 0 mm 2 mps 757 mmHg 62%
    Show more